Back to catalog

FENGYUN 1C DEB

AlivePO
NORAD 30763·DEBRIS·🇨🇳 China

Launched May 10, 1999 from Taiyuan Satellite Launch Center

Loading…

Next Passes (next 24 hours)

TLE

FreshSource: Space-Track

Epoch: Sep 14, 2026, 13:56 UTC

1 30763U 99025ATZ 26257.58109486  .00015975  00000-0  25283-2 0  9996
2 30763  98.8869 357.0632 0020127 142.2740 343.7986 14.72216930 11868

Track FENGYUN 1C DEB in real time with AllMySat

Download on the App Store